Find Starlink 32317

NORAD ID: 60918 Int'l Des: 2024-154 Owner: SPXS Country: US Constellation: starlink operational
LEOCIRCULAR

实时位置

正在加载3D地球...

关于 Starlink 32317

正在加载描述...

即将过境

Passes for default location (London). Set your location on the main map for personalized predictions.

高度历史

Loading altitude history...

两行轨道根数

1 60918U 24154R 26125.13866153 .00001813 00000-0 73342-4 0 9995
2 60918 53.1596 21.9203 0000873 54.1892 305.9190 15.30192814 94979
Epoch: May 5, 2026 • Age: 12 hours

当前状态

高度 490.0 km
速度 7.62 km/s
星下点 -43.34°S, 122.85°W
发射日期 Aug 31, 2024
运行时间 1.6 years
类型 internet

技术详情

分类 Payload
质量 730.00 kg
干质量 700.00 kg
总质量 730.00 kg
长度 0.30 m
直径 4.10 m
跨度 29.00 m
形状 Box + pan
制造商 SPXS
平台类型 Starlink V2M
阶段状态 In Orbit
所有者/国家 SPXS/US

Most Searched